This is the latest recevied weather packets stored in our database for station/object ON7SD-5. If no packets are shown the sender has not sent any weather packets the latest 10 day(s).
| Time | Temp. | Humidity | Pressure | Rain* | Wind** | Luminosity | Snow |
|---|---|---|---|---|---|---|---|
| 1777771632 | 15° C | 95% | 1010.3 hPa | 0 mm | - | 0 W/m² | - |
| 1777771332 | 15° C | 95% | 1010.3 hPa | 0 mm | - | 0 W/m² | - |
| 1777771032 | 15° C | 95% | 1010.3 hPa | 0 mm | - | 0 W/m² | - |
| 1777770732 | 15° C | 95% | 1010.4 hPa | 0 mm | - | 0 W/m² | - |
| 1777770132 | 15° C | 95% | 1010.5 hPa | 1.02 mm | - | 0 W/m² | - |
| 1777769532 | 15° C | 95% | 1010.6 hPa | 1.52 mm | - | 0 W/m² | - |
| 1777768932 | 15.56° C | 95% | 1010.8 hPa | 1.52 mm | - | 0 W/m² | - |
| 1777768632 | 15.56° C | 95% | 1010.9 hPa | 1.52 mm | - | 0 W/m² | - |
| 1777768332 | 15.56° C | 95% | 1011 hPa | 1.52 mm | - | 0 W/m² | - |
| 1777768032 | 15.56° C | 95% | 1011 hPa | 1.52 mm | - | 0 W/m² | - |
| 1777767732 | 15.56° C | 95% | 1011.2 hPa | 1.52 mm | - | 0 W/m² | - |
| 1777767432 | 15.56° C | 95% | 1011.3 hPa | 1.52 mm | - | 0 W/m² | - |
| 1777767132 | 15.56° C | 95% | 1011.2 hPa | 1.52 mm | - | 0 W/m² | - |
| 1777766832 | 15.56° C | 95% | 1011.2 hPa | 1.27 mm | - | 0 W/m² | - |
| 1777766532 | 15.56° C | 95% | 1011.3 hPa | 0.51 mm | - | 0 W/m² | - |
| 1777766232 | 15.56° C | 95% | 1011.5 hPa | 0 mm | - | 0 W/m² | - |
| 1777765932 | 15.56° C | 95% | 1011.6 hPa | 0 mm | - | 0 W/m² | - |
| 1777765632 | 15.56° C | 95% | 1011.4 hPa | 0 mm | - | 0 W/m² | - |
| 1777765332 | 15.56° C | 95% | 1011.2 hPa | 0 mm | - | 0 W/m² | - |
| 1777765032 | 15.56° C | 95% | 1011.2 hPa | 0 mm | - | 0 W/m² | - |
| 1777764732 | 15.56° C | 95% | 1011.2 hPa | 0 mm | - | 0 W/m² | - |
| 1777764432 | 15.56° C | 95% | 1011.4 hPa | 0 mm | - | 0 W/m² | - |
| 1777764132 | 15.56° C | 95% | 1011.3 hPa | 0 mm | - | 0 W/m² | - |
| 1777763832 | 15.56° C | 95% | 1011.2 hPa | 0 mm | - | 0 W/m² | - |
| 1777763532 | 15.56° C | 95% | 1011.2 hPa | 0 mm | - | 0 W/m² | - |
* Rain latest hour (hover to see other rain measurements)
** Current wind speed in m/s (hover to see current wind gust speed)